Home > Weather > Bad Nauheim > Past weeks

Flag for Germany Past Weather in Bad Nauheim, Hesse, Germany — Yesterday and Last 2 Weeks

Now
63 °F

Broken clouds.


Feels Like: 63 °F
Forecast: 57 / 74 °F
Wind: 9 mph from Northeast

Location: Frankfurt-M-Flughafen Airport

Current Time: May 28, 2016 at 10:18:52 PM

Latest Report: May 28, 2016 at 9:50 PM


Visibility: N/A

Pressure: 29.83 "Hg

Humidity: 88%

Dew Point: 59 °F

Location of Bad NauheimLocation

Past Weather in Bad Nauheim — Graph

°F

Bad Nauheim Temperature Yesterday

Maximum temperature yesterday: 73 °F (at 2:50 PM)
Minimum temperature yesterday: 57 °F (at 4:20 AM)
Average temperature yesterday: 64 °F

High & Low Weather Summary for the Past Weeks

 TemperatureHumidityPressure
High81 °F (May 22, 3:20 PM)100% (May 13, 11:50 PM)30.12 "Hg (May 13, 11:50 PM)
Low41 °F (May 15, 5:50 AM)24% (May 22, 3:50 PM)29.62 "Hg (May 13, 9:20 PM)
Average57 °F69%29.96 "Hg
* Reported May 13 9:20 PM — May 28 9:20 PM, Bad Nauheim, Weather by CustomWeather, © 2016

Note: Actual official high and low records may vary slightly from our data, if they occured in-between our weather recording intervals... More about our weather records

Advertising

Bad Nauheim Weather History for the Previous 24 Hours

Scroll right to see more
 ConditionsComfort  
Time TempWeatherWind HumidityBarometerVisibility
9:20 PM
Sat, May 28
63 °FBroken clouds.9 mph88%29.83 "HgN/A
8:50 PM63 °FSprinkles. Broken clouds.2 mph88%29.83 "HgN/A
8:20 PM63 °FThundershowers. Partly sunny.3 mph94%29.83 "Hg4 mi
7:50 PM63 °FThundershowers. Partly sunny.5 mph94%29.86 "Hg4 mi
7:20 PM64 °FThunderstorms. Broken clouds.13 mph94%29.86 "Hg4 mi
6:50 PM66 °FThunderstorms. Partly sunny.7 mph88%29.83 "HgN/A
6:20 PM70 °FThundershowers. Partly sunny.6 mph73%29.83 "HgN/A
5:50 PM70 °FThundershowers. Mostly cloudy.8 mph78%29.83 "HgN/A
5:20 PM73 °FThundershowers. Mostly cloudy.9 mph61%29.83 "HgN/A
4:50 PM75 °FThundershowers. Broken clouds.8 mph54%29.83 "HgN/A
4:20 PM75 °FPartly sunny.8 mph50%29.83 "HgN/A
3:50 PM77 °FPartly sunny.8 mph51%29.86 "HgN/A
3:20 PM75 °FBroken clouds.7 mph50%29.86 "HgN/A
2:50 PM75 °FScattered clouds.2 mph50%29.86 "HgN/A
2:20 PM75 °FScattered showers. Scattered clouds.3 mph54%29.86 "HgN/A
1:50 PM75 °FScattered clouds.5 mph54%29.89 "HgN/A
1:20 PM75 °FScattered clouds.5 mph54%29.89 "HgN/A
12:50 PM75 °FScattered clouds.5 mph57%29.89 "HgN/A
12:20 PM73 °FScattered clouds.6 mph61%29.92 "HgN/A
11:50 AM72 °FScattered clouds.6 mph61%29.92 "HgN/A
11:20 AM70 °FScattered clouds.7 mph69%29.92 "HgN/A
10:50 AM70 °FScattered clouds.6 mph69%29.92 "HgN/A
10:20 AM68 °FScattered clouds.5 mph73%29.92 "HgN/A
9:50 AM66 °FPassing clouds.5 mph78%29.92 "HgN/A
9:20 AM64 °FScattered clouds.7 mph83%29.92 "HgN/A
8:50 AM63 °FScattered clouds.6 mph88%29.92 "Hg5 mi
8:20 AM63 °FScattered clouds.7 mph88%29.92 "Hg4 mi
7:50 AM61 °FScattered clouds.7 mph88%29.95 "Hg4 mi
7:20 AM59 °FScattered clouds.7 mph88%29.95 "Hg4 mi
6:50 AM57 °FFog.6 mph94%29.95 "Hg4 mi
6:20 AM57 °FFog.6 mph94%29.95 "Hg4 mi
5:50 AM57 °FFog.2 mph94%29.95 "Hg4 mi
5:20 AM57 °FFog.3 mph94%29.95 "Hg4 mi
4:50 AM57 °FFog.3 mph94%29.95 "Hg5 mi
4:20 AM57 °FFog.5 mph94%29.95 "HgN/A
3:50 AM55 °FFog.5 mph100%29.95 "HgN/A
3:20 AM57 °FFog.5 mph94%29.95 "HgN/A
2:50 AM55 °FFog.5 mph94%29.95 "HgN/A
2:20 AM57 °FFog.6 mph94%29.95 "HgN/A
1:50 AM55 °FFog.3 mph94%29.95 "HgN/A
1:20 AM57 °FFog.3 mph94%29.95 "HgN/A
12:50 AM57 °FFog.3 mph94%29.95 "HgN/A
12:20 AM57 °FFog.3 mph94%29.95 "HgN/A
11:50 PM
Fri, May 27
57 °FFog.2 mph94%29.95 "HgN/A
11:20 PM59 °FFog.1 mph94%29.95 "HgN/A
10:50 PM59 °FPassing clouds.5 mph94%29.98 "HgN/A
10:20 PM59 °FPartly sunny.3 mph94%29.98 "HgN/A
Weather by CustomWeather, © 2016

See weather overviewHow to use our weather pages